Temp
-6 -6 -6 -6 -6 -6 -6 -6 -7 -7 -7 -7 -7 -7 -7 -7 -7 -7 -7 -7 -7 -7 -6 -6 -6 -7 -6 -6 -6 -7 -7 -7 -7 -6 -6 -6 -7 -7 -7 -7 -7 -7 -7
-6 -6 -6 -6 -6 -6 -6 -6 -6 -7 -7 -7 -7 -7 -7 -7 -7 -7 -7 -7 -7 -7 -7 -6 -6 -7 -7 -7 -7 -7 -7 -7 -7 -8 -7 -6 -7 -7 -7 -7 -7 -7 -7
-6 -6 -7 -6 -6 -6 -6 -6 -6 -6 -6 -7 -7 -7 -6 -7 -7 -7 -7 -7 -7 -7 -7 -7 -7 -6 -7 -7 -7 -7 -7 -7 -7 -7 -8 -7 -7 -7 -7 -7 -8 -8 -7
-7 -7 -7 -7 -7 -6 -7 -7 -7 -7 -7 -7 -7 -7 -7 -7 -7 -7 -7 -7 -6 -7 -7 -7 -7 -6 -6 -6 -7 -7 -7 -7 -6 -6 -7 -7 -7 -7 -7 -7 -8 -7 -7
-7 -7 -7 -7 -7 -7 -7 -7 -7 -6 -6 -6 -6 -6 -6 -7 -7 -7 -7 -6 -6 -6 -6 -6 -6 -6 -7 -7 -7 -7 -7 -7 -7 -7 -6 -6 -7 -7 -7 -7 -6 -7 -7
-8 -8 -8 -8 -7 -7 -7 -7 -7 -7 -7 -7 -7 -7 -7 -7 -7 -7 -7 -6 -7 -7 -7 -7 -7 -7 -7 -7 -7 -7 -6 -7 -7 -6 -6 -6 -7 -7 -7 -6 -6 -6 -6
-8 -8 -8 -8 -8 -8 -7 -7 -7 -7 -7 -7 -7 -7 -7 -7 -7 -7 -7 -7 -7 -7 -7 -7 -7 -7 -7 -7 -7 -7 -6 -6 -6 -6 -6 -6 -6 -7 -6 -6 -6 -6 -6
-8 -8 -8 -8 -8 -8 -8 -8 -8 -8 -8 -8 -8 -8 -8 -7 -8 -8 -8 -8 -7 -7 -7 -7 -7 -7 -7 -7 -7 -7 -7 -6 -6 -5 -5 -6 -6 -6 -6 -6 -6 -6 -6
-9 -9 -9 -9 -9 -8 -8 -8 -8 -8 -8 -8 -8 -8 -7 -7 -8 -8 -7 -8 -8 -8 -7 -7 -7 -7 -7 -7 -7 -6 -6 -6 -6 -5 -5 -5 -5 -5 -6 -5 -6 -5 -6
-9 -9 -10 -9 -9 -9 -9 -9 -9 -8 -9 -9 -9 -8 -8 -8 -7 -7 -7 -7 -8 -8 -7 -7 -6 -6 -7 -6 -6 -6 -6 -6 -5 -5 -4 -5 -5 -5 -5 -5 -5 -5 -5
-10 -10 -10 -10 -10 -9 -9 -9 -9 -8 -9 -8 -9 -8 -7 -8 -8 -8 -8 -7 -8 -8 -7 -7 -6 -6 -6 -5 -5 -5 -5 -5 -5 -5 -4 -5 -5 -5 -5 -5 -4 -5 -5
-10 -10 -10 -10 -10 -10 -10 -10 -9 -9 -8 -8 -8 -8 -8 -8 -7 -6 -7 -8 -8 -7 -7 -7 -6 -6 -6 -6 -5 -5 -5 -5 -5 -5 -5 -5 -4 -4 -4 -4 -5 -5 -5
-11 -11 -10 -10 -11 -10 -10 -10 -10 -9 -9 -8 -8 -8 -8 -7 -7 -7 -7 -7 -7 -8 -7 -7 -7 -6 -6 -6 -5 -5 -5 -5 -4 -4 -4 -4 -4 -4 -4 -4 -5 -6 -6
-11 -11 -11 -11 -11 -10 -10 -10 -10 -9 -9 -9 -8 -8 -7 -7 -6 -7 -7 -7 -7 -7 -8 -7 -7 -7 -6 -6 -5 -5 -5 -4 -4 -4 -4 -4 -3 -3 -4 -4 -5 -5 -5
-11 -11 -11 -10 -10 -10 -10 -10 -10 -10 -9 -9 -9 -8 -8 -7 -6 -7 -7 -7 -7 -8 -8 -7 -7 -7 -6 -6 -5 -5 -5 -5 -4 -4 -4 -4 -4 -4 -4 -5 -5 -5 -6
-11 -10 -10 -10 -11 -10 -10 -10 -10 -10 -9 -9 -9 -8 -8 -9 -7 -7 -8 -8 -8 -8 -8 -8 -8 -7 -6 -6 -5 -5 -5 -5 -5 -4 -4 -4 -4 -4 -4 -5 -5 -6 -6
-11 -11 -10 -10 -11 -10 -10 -10 -10 -9 -9 -9 -9 -9 -8 -8 -8 -7 -8 -8 -8 -9 -9 -8 -7 -7 -7 -6 -6 -6 -5 -5 -5 -5 -5 -5 -5 -5 -5 -5 -6 -7 -7
-11 -10 -10 -11 -11 -11 -11 -10 -10 -10 -9 -9 -9 -8 -8 -8 -8 -9 -8 -9 -9 -11 -9 -8 -7 -7 -7 -7 -6 -6 -6 -6 -6 -5 -5 -5 -5 -5 -6 -6 -7 -8 -8
-10 -10 -11 -11 -11 -11 -11 -10 -10 -9 -9 -9 -9 -8 -8 -8 -8 -8 -9 -9 -9 -9 -8 -8 -8 -8 -8 -7 -7 -7 -7 -7 -6 -6 -6 -6 -6 -6 -7 -7 -8 -8 -8
-11 -11 -10 -11 -11 -11 -11 -10 -10 -10 -9 -9 -9 -9 -8 -8 -8 -8 -8 -8 -8 -8 -8 -8 -8 -8 -8 -8 -8 -8 -7 -7 -7 -7 -7 -7 -7 -7 -7 -7 -8 -8 -8
-10 -11 -11 -11 -11 -11 -11 -11 -10 -10 -9 -9 -9 -9 -9 -9 -8 -8 -8 -8 -8 -8 -8 -9 -9 -9 -9 -9 -9 -8 -8 -8 -8 -8 -8 -8 -8 -8 -8 -8 -8 -9 -9
-10 -11 -10 -11 -11 -11 -11 -11 -11 -10 -10 -10 -10 -9 -9 -9 -9 -8 -8 -8 -9 -9 -9 -9 -9 -9 -9 -9 -9 -9 -9 -9 -9 -9 -9 -9 -9 -9 -9 -9 -9 -9 -9
-12 -11 -11 -11 -11 -11 -11 -11 -11 -11 -10 -10 -10 -10 -9 -9 -9 -9 -9 -9 -9 -9 -9 -9 -10 -10 -10 -10 -10 -10 -10 -10 -10 -10 -10 -10 -10 -10 -10 -10 -10 -10 -10
-11 -11 -11 -11 -11 -11 -11 -11 -11 -11 -11 -11 -10 -10 -9 -9 -9 -9 -9 -9 -9 -10 -10 -10 -10 -10 -10 -11 -11 -11 -11 -11 -10 -10 -11 -11 -11 -11 -11 -11 -11 -11 -11
-12 -11 -11 -10 -10 -11 -12 -11 -11 -11 -11 -11 -11 -10 -10 -10 -10 -10 -10 -10 -10 -10 -10 -10 -11 -11 -11 -11 -11 -11 -11 -11 -11 -11 -11 -11 -11 -11 -11 -11 -11 -11 -11
-11 -11 -11 -11 -11 -11 -12 -12 -12 -11 -11 -11 -11 -10 -10 -10 -10 -10 -10 -10 -10 -10 -10 -10 -10 -11 -11 -11 -11 -11 -11 -11 -11 -11 -11 -11 -11 -11 -11 -11 -12 -11 -12
Height
5896 5897 5898 5899 5900 5900 5900 5902 5903 5904 5905 5907 5907 5909 5910 5911 5913 5913 5913 5915 5915 5916 5917 5916 5915 5914 5913 5913 5912 5912 5911 5912 5912 5908 5909 5912 5916 5916 5914 5912 5913 5911 5909
5894 5894 5895 5896 5897 5898 5899 5900 5901 5903 5903 5904 5905 5906 5907 5908 5909 5910 5911 5912 5912 5912 5912 5912 5911 5910 5908 5907 5907 5905 5905 5905 5905 5904 5901 5901 5903 5905 5906 5905 5904 5902 5903
5891 5892 5892 5893 5894 5896 5897 5898 5898 5899 5901 5902 5902 5902 5903 5905 5906 5907 5907 5908 5909 5909 5908 5908 5907 5907 5905 5904 5903 5901 5901 5901 5900 5898 5896 5893 5893 5895 5895 5896 5896 5896 5896
5887 5888 5889 5890 5892 5893 5893 5894 5895 5895 5896 5897 5898 5900 5901 5902 5902 5903 5903 5903 5904 5904 5903 5902 5901 5901 5900 5899 5899 5897 5895 5894 5892 5891 5890 5888 5885 5883 5886 5886 5887 5887 5886
5884 5885 5885 5887 5888 5889 5889 5890 5891 5891 5891 5891 5892 5892 5893 5895 5895 5895 5896 5896 5896 5897 5897 5897 5896 5895 5895 5895 5895 5893 5891 5889 5885 5883 5882 5881 5879 5876 5875 5876 5877 5878 5878
5881 5881 5882 5884 5884 5885 5885 5886 5886 5887 5887 5887 5887 5887 5887 5888 5888 5888 5889 5889 5888 5889 5888 5890 5890 5890 5890 5889 5889 5888 5886 5883 5881 5877 5875 5873 5871 5870 5868 5868 5867 5869 5869
5878 5878 5879 5881 5881 5882 5882 5882 5882 5883 5883 5882 5881 5881 5881 5882 5881 5880 5881 5882 5881 5881 5881 5880 5880 5881 5882 5882 5881 5881 5878 5876 5873 5871 5869 5866 5865 5862 5861 5860 5859 5861 5861
5873 5875 5876 5877 5878 5878 5879 5878 5878 5878 5877 5877 5876 5875 5875 5874 5872 5871 5871 5871 5871 5871 5872 5871 5871 5872 5873 5873 5872 5872 5870 5866 5863 5863 5861 5859 5856 5855 5854 5853 5852 5852 5851
5869 5870 5871 5873 5874 5875 5875 5874 5874 5873 5872 5871 5870 5869 5868 5867 5861 5858 5858 5860 5861 5862 5862 5863 5865 5865 5865 5865 5866 5864 5862 5858 5854 5853 5852 5851 5848 5847 5846 5846 5844 5843 5843
5865 5866 5866 5866 5868 5869 5869 5868 5868 5867 5866 5864 5862 5861 5853 5833 5827 5829 5845 5848 5852 5853 5855 5855 5855 5856 5858 5858 5858 5855 5853 5849 5846 5844 5843 5841 5840 5838 5837 5837 5835 5835 5835
5856 5858 5860 5861 5862 5862 5862 5862 5861 5859 5858 5857 5855 5853 5850 5843 5843 5845 5843 5844 5844 5847 5847 5848 5848 5848 5849 5849 5848 5845 5844 5841 5838 5836 5834 5831 5830 5830 5829 5828 5827 5825 5825
5846 5849 5850 5852 5853 5854 5853 5853 5852 5851 5850 5849 5848 5845 5844 5842 5841 5839 5839 5839 5837 5837 5838 5838 5840 5839 5839 5839 5838 5836 5833 5832 5830 5827 5824 5822 5821 5821 5820 5819 5818 5816 5815
5837 5839 5841 5843 5844 5845 5845 5844 5844 5843 5842 5840 5840 5837 5833 5831 5830 5828 5827 5828 5829 5829 5827 5829 5831 5831 5830 5830 5829 5826 5824 5822 5820 5818 5816 5813 5811 5810 5810 5809 5808 5808 5807
5825 5828 5831 5833 5835 5837 5838 5837 5837 5836 5833 5832 5830 5827 5823 5819 5816 5818 5819 5819 5821 5822 5821 5823 5821 5821 5822 5821 5819 5817 5815 5813 5811 5810 5807 5805 5802 5801 5800 5799 5799 5800 5799
5812 5818 5821 5824 5827 5829 5830 5830 5830 5828 5826 5825 5823 5819 5814 5809 5806 5807 5810 5809 5811 5811 5812 5813 5812 5813 5813 5812 5810 5808 5806 5804 5803 5801 5799 5797 5795 5793 5792 5791 5791 5791 5791
5797 5804 5809 5815 5819 5820 5822 5822 5822 5821 5819 5818 5815 5811 5807 5802 5796 5798 5798 5800 5800 5802 5803 5804 5805 5805 5804 5803 5801 5800 5798 5796 5794 5792 5791 5789 5787 5785 5785 5784 5784 5783 5782
5786 5791 5795 5799 5808 5811 5813 5814 5814 5814 5811 5810 5808 5805 5801 5797 5789 5787 5790 5791 5793 5795 5798 5799 5799 5799 5797 5795 5793 5792 5790 5788 5786 5785 5784 5782 5781 5780 5778 5777 5777 5776 5775
5774 5778 5782 5790 5797 5801 5803 5806 5807 5806 5804 5803 5803 5801 5799 5796 5792 5787 5784 5786 5787 5790 5793 5793 5793 5791 5790 5789 5787 5785 5784 5782 5780 5779 5777 5777 5775 5774 5772 5771 5771 5770 5770
5764 5768 5774 5781 5787 5791 5795 5798 5799 5798 5797 5796 5796 5795 5795 5793 5791 5789 5788 5788 5788 5790 5789 5788 5786 5786 5785 5783 5782 5781 5780 5778 5775 5774 5772 5772 5770 5767 5766 5766 5765 5765 5763
5749 5758 5765 5770 5777 5782 5786 5789 5791 5790 5789 5790 5790 5789 5789 5789 5787 5786 5786 5786 5785 5784 5784 5782 5781 5782 5779 5778 5778 5777 5775 5773 5772 5770 5768 5767 5765 5763 5761 5760 5760 5759 5757
5731 5745 5754 5761 5767 5773 5776 5779 5782 5782 5783 5783 5783 5783 5783 5782 5782 5782 5781 5780 5780 5778 5777 5777 5777 5777 5775 5774 5774 5773 5771 5769 5768 5767 5765 5763 5762 5760 5759 5758 5757 5755 5754
5730 5738 5744 5749 5755 5761 5765 5769 5772 5774 5775 5776 5776 5777 5777 5777 5777 5776 5775 5774 5773 5773 5772 5772 5771 5770 5770 5770 5770 5769 5768 5768 5766 5764 5763 5761 5759 5758 5757 5756 5755 5754 5752
5722 5729 5734 5740 5745 5750 5754 5757 5761 5764 5767 5768 5769 5770 5771 5771 5770 5769 5767 5767 5766 5765 5765 5764 5764 5764 5763 5763 5763 5764 5764 5764 5763 5762 5761 5759 5758 5756 5754 5753 5752 5752 5751
5710 5718 5725 5732 5736 5739 5742 5747 5751 5753 5757 5760 5761 5762 5762 5762 5761 5761 5760 5760 5759 5759 5757 5756 5756 5756 5756 5756 5756 5757 5758 5759 5758 5758 5757 5756 5755 5754 5752 5751 5751 5750 5750
5707 5712 5718 5724 5726 5729 5732 5738 5742 5744 5747 5750 5754 5755 5754 5754 5753 5753 5753 5751 5750 5750 5749 5750 5749 5748 5748 5748 5750 5751 5752 5752 5752 5752 5752 5752 5752 5750 5749 5748 5747 5747 5747
5700 5706 5710 5715 5717 5719 5723 5729 5733 5736 5738 5742 5746 5747 5746 5746 5744 5744 5744 5743 5743 5742 5741 5741 5741 5741 5741 5741 5740 5741 5742 5743 5744 5744 5745 5745 5745 5744 5744 5743 5743 5743 5742
Wind_Speed
8 11 10 10 12 14 15 15 16 16 16 17 17 17 18 18 18 18 19 20 20 20 21 21 21 21 21 21 20 20 21 19 20 26 24 21 18 19 21 23 22 21 20
10 10 11 11 12 14 15 15 15 16 17 18 18 18 19 19 18 18 19 19 20 21 21 20 20 19 21 21 21 22 19 21 22 23 27 28 23 22 22 23 25 26 27
14 13 12 15 14 13 12 12 13 13 15 16 18 20 19 19 19 19 20 19 19 19 19 19 20 20 21 21 21 23 28 27 23 24 25 29 29 27 26 26 26 28 29
17 17 14 14 14 17 16 14 14 15 15 15 16 18 20 21 21 21 21 20 19 19 19 20 21 22 22 22 23 25 25 26 27 24 24 27 30 33 30 29 30 29 30
18 16 13 13 15 19 21 17 16 15 16 17 18 19 19 18 19 20 19 20 21 21 21 22 23 22 23 26 25 26 27 27 28 28 26 26 28 31 33 34 31 29 27
18 16 13 15 16 16 17 18 18 18 19 19 20 21 22 20 22 22 22 23 24 25 25 23 24 25 25 24 25 25 27 29 29 29 28 27 27 28 31 30 29 26 27
20 17 16 17 19 19 19 20 20 21 20 21 22 22 23 22 24 26 26 26 26 26 26 26 32 30 26 25 28 28 29 31 29 31 31 28 27 28 28 29 30 29 28
23 20 17 17 18 19 19 18 17 17 17 17 19 23 23 23 27 27 26 31 32 29 27 26 24 27 27 28 29 30 32 33 33 30 29 29 27 28 28 27 27 27 26
23 22 22 22 22 21 20 22 21 20 20 22 22 24 26 29 35 35 37 34 31 28 27 29 27 29 28 27 28 29 31 33 34 31 30 27 29 30 30 28 30 30 30
28 26 27 26 25 24 23 23 22 21 21 23 27 30 40 46 35 34 29 35 28 27 28 29 28 27 25 28 29 30 29 32 32 32 31 30 29 29 29 27 30 31 32
32 29 27 26 24 24 24 22 23 22 23 26 28 32 36 35 38 29 20 21 22 27 31 32 30 29 28 28 30 31 31 30 32 32 33 32 30 28 29 30 34 37 38
36 33 30 29 25 25 23 24 24 23 25 26 26 29 31 31 27 29 30 28 26 28 33 31 33 31 32 31 31 32 32 30 30 32 33 33 32 30 30 33 35 36 35
38 36 35 29 29 27 25 24 22 22 23 24 24 27 32 34 32 34 31 29 28 28 26 33 33 32 32 33 32 33 32 31 31 31 32 33 33 32 33 32 31 28 27
42 42 38 32 31 26 24 26 24 23 24 24 26 29 32 33 34 35 32 29 28 29 26 30 31 30 31 33 34 33 32 29 29 29 28 30 31 29 25 25 25 27 29
44 42 40 38 32 28 28 27 25 25 26 25 26 27 30 32 31 30 30 32 32 31 31 32 28 29 32 33 31 31 28 27 27 27 26 26 25 23 24 24 26 29 29
44 41 41 40 32 31 29 27 24 26 26 24 24 26 25 31 31 29 37 28 27 31 30 27 26 28 28 26 26 25 24 24 25 25 25 25 24 23 21 23 24 24 21
46 45 44 33 33 32 29 26 24 25 26 22 20 22 24 24 24 31 29 31 26 28 25 25 22 22 21 20 20 21 23 22 22 23 25 25 24 21 21 21 22 23 22
55 43 35 33 35 33 30 29 25 26 25 21 19 20 18 18 19 14 12 25 26 13 17 16 17 16 16 17 18 19 20 20 20 21 20 22 22 21 20 20 21 21 21
51 43 41 39 38 35 32 30 26 26 25 23 21 20 22 23 22 16 10 9 11 14 14 15 14 16 15 14 15 16 16 16 17 18 18 20 20 19 18 19 19 20 19
59 56 44 38 36 33 32 31 29 27 27 26 24 21 22 23 22 18 18 15 12 12 14 15 16 17 16 16 16 15 13 13 14 15 16 16 15 15 15 16 15 14 13
46 40 39 36 33 34 34 33 31 29 28 28 28 24 24 24 24 22 21 20 18 17 16 17 18 19 18 17 17 17 15 12 12 13 12 12 12 11 11 9 9 8 7
33 30 32 31 34 38 39 34 31 31 29 30 30 28 26 26 24 24 22 23 22 21 22 21 19 19 19 18 17 16 16 15 12 11 11 11 10 8 7 7 7 6 6
40 38 32 30 31 34 33 30 30 28 29 30 31 31 28 27 27 26 26 24 26 26 25 25 23 22 20 19 19 17 16 17 15 12 11 10 10 9 7 4 4 4 3
48 47 45 43 40 36 28 31 33 29 31 30 30 31 30 28 27 27 28 29 28 27 25 24 25 25 24 22 21 19 18 18 17 15 13 13 11 9 8 7 6 6 7
34 36 37 39 35 32 29 38 35 33 30 27 29 31 29 29 29 28 28 27 27 25 24 24 24 24 24 24 23 21 20 19 18 17 16 15 14 12 10 9 10 10 11
37 38 39 29 23 31 35 36 37 35 30 29 30 30 30 29 27 27 26 25 24 24 23 23 22 23 22 23 25 23 22 21 20 19 18 18 16 14 13 13 14 15 16
Wind_Direction
247 243 246 253 241 224 224 224 223 221 226 234 236 233 231 236 242 247 254 260 267 269 272 276 278 282 281 280 281 282 285 288 288 289 284 274 264 264 264 261 261 265 269
242 236 230 238 240 234 231 234 234 229 228 233 237 238 242 246 251 254 260 264 263 266 270 271 274 277 281 286 286 285 286 298 295 286 285 283 278 268 262 263 268 267 265
233 227 225 233 241 241 231 238 243 244 240 237 244 254 258 261 262 263 266 265 265 267 270 271 273 272 272 277 279 282 286 288 292 290 285 279 277 271 267 267 265 264 265
227 226 228 234 235 239 247 246 251 250 249 245 243 244 249 255 259 260 260 261 262 262 263 266 270 274 275 274 285 285 292 294 296 293 288 285 285 283 279 274 270 270 272
223 223 229 239 238 243 244 248 249 250 253 255 256 257 258 261 263 263 264 267 269 269 270 272 269 272 276 277 285 288 291 293 296 295 291 287 284 283 283 284 276 273 274
229 223 228 237 237 235 241 250 260 263 263 262 262 264 264 264 264 263 261 261 263 267 267 266 264 266 272 276 283 284 289 288 286 288 286 283 281 283 282 282 281 276 274
234 235 231 236 243 245 248 254 260 264 268 270 271 272 272 272 268 265 265 265 262 260 265 269 258 265 269 276 282 287 288 287 284 285 290 283 276 281 284 282 281 279 277
238 231 233 237 245 251 257 259 258 262 262 268 273 272 272 271 266 261 255 255 260 260 260 263 246 256 269 277 287 288 287 286 285 288 289 286 278 276 279 282 283 282 277
234 235 242 247 254 262 263 262 263 266 267 269 271 272 271 264 262 246 246 250 253 256 256 249 254 257 273 275 277 282 284 284 286 290 290 285 281 277 276 276 277 279 278
235 245 247 249 254 259 261 261 259 260 259 267 271 268 259 295 314 275 255 244 249 245 243 249 256 261 269 272 278 284 286 286 288 289 288 284 281 277 278 277 276 277 276
242 244 244 246 250 256 259 257 259 257 267 273 276 276 281 301 304 309 257 243 248 249 246 252 256 257 264 274 282 289 290 288 287 283 281 279 275 272 270 272 274 274 276
239 242 245 249 255 261 263 266 265 266 269 274 276 287 287 285 279 273 268 262 263 263 254 255 259 263 270 277 283 288 292 288 283 279 275 274 274 271 266 266 267 271 277
240 243 245 247 255 260 267 272 273 274 275 274 288 295 291 283 271 268 267 265 264 272 255 255 261 266 271 276 281 289 293 290 285 278 276 278 278 274 272 271 272 272 275
237 240 245 249 252 254 264 267 271 277 278 287 295 300 303 292 271 264 260 262 257 263 268 267 264 268 270 277 287 292 289 285 279 276 280 282 278 273 272 272 271 272 276
232 236 240 244 252 251 256 260 265 273 275 285 296 306 308 304 271 254 260 262 259 260 265 271 264 262 266 279 286 283 280 277 276 278 282 284 279 271 271 269 271 274 276
221 225 234 238 235 247 256 259 267 269 275 283 295 307 308 312 287 253 259 274 265 257 264 262 258 267 274 279 280 278 277 278 279 277 277 278 277 274 274 275 273 273 274
219 223 229 226 239 250 255 259 268 270 273 281 295 301 307 315 324 255 258 272 271 254 251 260 267 279 280 285 285 286 286 284 283 282 282 278 273 270 273 272 272 270 269
226 218 219 228 244 252 258 263 268 271 272 281 289 282 295 308 320 352 268 252 243 241 265 276 284 291 293 293 297 296 293 290 287 284 280 275 273 271 269 269 265 264 266
223 229 227 235 243 250 257 266 268 269 267 273 284 287 284 288 298 311 297 261 244 244 255 270 289 294 295 301 303 297 294 297 296 287 279 274 270 268 271 273 272 269 271
220 225 226 231 240 248 256 263 266 268 263 267 278 280 279 280 284 287 288 281 269 271 279 289 295 294 301 306 307 300 296 301 304 300 295 287 283 280 278 275 272 271 270
209 211 217 227 239 247 250 256 259 264 262 263 270 274 276 274 275 274 274 276 276 278 277 282 287 293 297 298 301 301 300 302 303 301 306 308 307 299 286 274 268 261 254
230 228 228 225 239 247 250 249 255 258 262 262 266 270 271 270 270 272 273 274 276 277 276 274 275 281 287 290 292 294 298 297 297 302 307 311 315 316 302 285 271 260 253
232 229 227 232 242 241 243 236 240 247 258 262 266 268 268 268 269 269 272 272 274 275 277 279 278 275 276 279 282 286 288 288 286 287 287 291 296 297 297 309 316 309 305
225 222 226 233 245 244 226 235 235 240 252 261 268 271 274 270 269 271 272 273 273 273 273 274 275 275 274 273 273 274 275 276 279 279 279 280 277 271 270 271 262 264 272
240 223 228 232 239 247 244 242 234 238 248 258 265 269 268 268 268 271 272 274 275 275 274 271 270 271 274 276 273 272 272 270 272 273 271 269 266 263 266 273 278 281 283
231 217 225 224 219 225 229 232 233 238 244 252 260 264 267 269 271 272 272 272 268 269 270 270 269 271 273 273 274 273 269 265 264 266 266 262 263 262 263 265 270 274 275